Showing default

OSCAR 23, 19070

Orbit data source: Space-Track

OSCAR 23, 19070 is a payload satellite owned by USN NAVAIR (US) in LEO that was launched on Tue, 26 Apr 1988 UTC via an SCOUT G-1 launch vehicle from the Air Force Western Test Range (AFWTR). Payload-class satellites include a variety of spacecraft equipped with specific instruments for various scientific and technological missions. These include communications satellites like Starlink; space stations such as the ISS; scientific satellites like the Hubble; Earth observation satellites from companies like Planet Labs, Umbra, and HawkEye 360; GPS; miniature CubeSats for education and research; and military/defense satellites.

Loading next visibility...
Identifier
19070, 1988-033A
Orbit
LEO
Country
Flag of USUS
Related business
Manufacturer
GE/East Windsor
Mission
Defense Navigation
Bus & Motor
TRANSIT 5, Unknown motor
Mass
66 kg wet, 66 kg dry
Launch date (UTC)
1988-04-26 (38 years ago)
Launch vehicle
SCOUT G-1
Launch site
Air Force Western Test Range (AFWTR)
Object type
Payload
Rocket body
Debris
Shape & HBR
Oct Cyl + 4 Pan + 1 Rod, 15.0 m
Radar Cross Section
7.565 m², Large (>1 m²)

Expand to show TLE details & history
Last TLE update: 2 days ago

TLE from 2 days ago
0 OSCAR 23
1 19070U 88033A   26171.37051147  .00000050  00000-0  85218-4 0  9997
2 19070  90.3272  22.3890 0189950  13.6267 160.3356 13.27817969847694
Epoch: 2026-06-20T08:53Z
TLE epoch observation values (Epoch: 2026-06-20T08:53:32.191Z)
Latitude
5.23891°
Longitude
160.44862°
Altitude
1,292.474 km
Speed
7.145 km/s
True Right ascension
13h 29m 40s
True Declination
5° 12' 36"
Sunlit
Object was in daylight at epoch
Visualization orbit readout
Latitude
Unknown
Longitude
Unknown
Altitude
Unknown
Speed
Unknown
Apparent Right ascension
Unknown
Apparent Declination
Unknown
Sunlit
N/A
Visualization observer readout
Local Sidereal Time
23:09:09
Azimuth
Unknown
Elevation
Unknown
Doppler factor
Unknown
Orbital elements
Apogee altitude
1,295.122 km
Perigee altitude
1,009.049 km
Semi-major axis
7,530.223 km
Eccentricity
0.019
Inclination
90.3272°
RAAN
22.389°
Arg. of periapsis
13.6267°
True anomaly
161.05202°
Mean anomaly
160.3356°
Eccentric anomaly
160.69539°
Mean motion
3.32148 °/min
Orbital period
108.39 mins
BSTAR
0.000085218
Loading maneuver chart data...
Computing Atmospheric mass density...
Loading historical data...
Loading historical data...
Loading historical data...
Loading historical data...
Loading historical data...
Loading historical data...
Loading historical data...

Documentation

Showing up to 5 results
|